TimePST,TemperatureF,Dew PointF,Humidity,Sea Level PressureIn,VisibilityMPH,Wind Direction,Wind SpeedMPH,Gust SpeedMPH,PrecipitationIn,Events,Conditions,WindDirDegrees,DateUTC
12:53 AM,63.0,55.0,75,30.09,9.0,Calm,Calm,-,N/A,,Overcast,0,2012-11-16 08:53:00
1:53 AM,62.1,54.0,75,30.07,8.0,East,4.6,-,0.00,,Scattered Clouds,80,2012-11-16 09:53:00
2:53 AM,61.0,53.1,75,30.06,9.0,West,3.5,-,N/A,,Overcast,270,2012-11-16 10:53:00
3:53 AM,61.0,53.1,75,30.06,8.0,Calm,Calm,-,N/A,,Mostly Cloudy,0,2012-11-16 11:53:00
4:53 AM,60.1,53.1,78,30.06,8.0,East,3.5,-,0.01,,Mostly Cloudy,90,2012-11-16 12:53:00
5:53 AM,61.0,52.0,72,30.07,10.0,Calm,Calm,-,N/A,,Mostly Cloudy,0,2012-11-16 13:53:00
6:53 AM,62.1,46.9,58,30.09,10.0,Calm,Calm,-,N/A,,Mostly Cloudy,0,2012-11-16 14:53:00
7:53 AM,63.0,51.1,65,30.11,10.0,Calm,Calm,-,N/A,,Mostly Cloudy,0,2012-11-16 15:53:00
8:53 AM,66.9,41.0,39,30.11,10.0,Calm,Calm,-,N/A,,Mostly Cloudy,0,2012-11-16 16:53:00
9:53 AM,70.0,39.9,33,30.12,10.0,SW,6.9,-,N/A,,Mostly Cloudy,220,2012-11-16 17:53:00
10:53 AM,71.1,36.0,28,30.10,10.0,SW,6.9,-,N/A,,Mostly Cloudy,230,2012-11-16 18:53:00
11:53 AM,71.1,39.9,32,30.07,10.0,SW,9.2,-,N/A,,Mostly Cloudy,230,2012-11-16 19:53:00
12:53 PM,71.1,42.1,35,30.05,10.0,SW,6.9,-,N/A,,Mostly Cloudy,220,2012-11-16 20:53:00
1:53 PM,73.0,43.0,34,30.03,10.0,SSW,8.1,-,N/A,,Mostly Cloudy,210,2012-11-16 21:53:00
2:53 PM,71.1,48.0,44,30.02,10.0,SSW,12.7,-,N/A,,Mostly Cloudy,200,2012-11-16 22:53:00
3:53 PM,66.9,54.0,63,30.02,10.0,WSW,3.5,-,N/A,,Mostly Cloudy,250,2012-11-16 23:53:00
4:53 PM,66.9,55.0,66,30.04,10.0,SW,5.8,-,N/A,,Mostly Cloudy,230,2012-11-17 00:53:00
5:53 PM,64.9,55.9,73,30.05,10.0,SSW,4.6,-,N/A,,Overcast,200,2012-11-17 01:53:00
6:53 PM,64.9,55.9,73,30.05,10.0,SE,3.5,-,N/A,,Overcast,130,2012-11-17 02:53:00
7:53 PM,64.9,55.9,73,30.05,10.0,Variable,5.8,-,0.00,,Mostly Cloudy,0,2012-11-17 03:53:00
8:53 PM,64.9,55.9,73,30.06,10.0,Calm,Calm,-,N/A,,Mostly Cloudy,0,2012-11-17 04:53:00
9:53 PM,64.9,55.9,73,30.08,10.0,WSW,4.6,-,N/A,,Mostly Cloudy,240,2012-11-17 05:53:00
10:53 PM,64.9,57.0,75,30.08,10.0,South,3.5,-,N/A,,Mostly Cloudy,190,2012-11-17 06:53:00
11:53 PM,64.9,57.0,75,30.08,10.0,SSE,3.5,-,N/A,,Overcast,150,2012-11-17 07:53:00